KBFW

Details ICAO KBFW
Name SILVER BAY MUNI
Region United States
Timezone America/Chicago (UTC-5.0)
Plans Departing 0
Arriving 0
Stats Elevation 1,089 ft / 332 m (AMSL)
Location 47.248979° -91.415513°
Runways 1
Magnetic Variation 1.690° W
Sunrise 2018-05-20 10:25:05 UTC / 2018-05-20 05:25:05 Local
Sunset 2018-05-21 01:42:10 UTC / 2018-05-20 20:42:10 Local
Advertisement - Login to hide

Runways

ID Width Length Bearing (true) Bearing (mag) Surface Threshold Offset Overrun Length
07 75 ft / 23 m 3,194 ft / 974 m 72.32° 74.01° Asphalt 0 ft / 0 m 0 ft / 0 m
25 75 ft / 23 m 3,194 ft / 974 m 252.33° 254.02° Asphalt 0 ft / 0 m 0 ft / 0 m

Map

Weather


0- 5 10 15 20 25 30 35+ Temperature / ° C

Clouds and Precipitation
Forecast for 2018-05-21 00:00 UTC. Updated 38 minutes ago

Ground ~20,000 ft ~40,000 ft Winds

METAR

KBFW 202335Z AUTO 16007KT 10SM CLR 19/M01 A3016 RMK AO2

TAF

Not found

Frequencies

Unicom 122.90 MHz CTAF
Warning: Do not use this data for real-world aviation or navigation. No guarantee of current accuracy is given.